Terminal Aerodrome Forecast
Issued by NWS Columbia, SC

Home | Current Version | Previous Version | Text Only | Print | Product List | Glossary On
Versions: 1 2 3 4 5 6 7 8 9 10 11 12 13 14 15 16 17 18 19 20 21 22 23 24 25 26 27 28 29 30 31 32 33 34
000
FTUS42 KCAE 171500 AAB
TAFCAE
TAF AMD
KCAE 171538Z 1716/1812 VRB04KT P6SM BKN015
     FM171800 VRB05KT P6SM BKN040
     FM181000 VRB03KT 4SM BR SCT010=

USA.gov is the U.S. government's official web portal to all federal, state and local government web resources and services.